Voltar ao catálogo

THOR ABLESTAR DEB

AtivoLEO
NORAD 330·DEBRIS·🇺🇸 United States

Lançado Jun 29, 1961 de Cape Canaveral Space Force Station

Loading…

Próximas Passagens (próximas 24 horas)

TLE

AtualizadoSource: Space-Track

Época: Sep 14, 2026, 12:36 UTC

1 00330U 61015DG  26257.52527754  .00000405  00000-0  28753-3 0  9995
2 00330  66.9777  81.4558 0043535  48.3418 312.1385 14.06889731309270

Acompanhe THOR ABLESTAR DEB em tempo real com AllMySat

Download on the App Store